sat.trackr.live / text

‹ back to catalog

STARLINK-11558 [DTC]

NORAD 63055 · 2025-035D

PAYLOAD ACTIVE UNKNOWN

§ Identity

Operator
Country
US
Launch date
2025-02-21
Launch site
AFETR
Launch vehicle
Mass (kg)
RCS (m²)

Purposes: comms

External: N2YO · Heavens-Above · Gunter

§ Orbital elements

Epoch: 2026-09-21T09:14:41.508096Z

Period
91.67 min
Inclination
42.9994°
Eccentricity
0.0001736
Mean motion
15.70863223 rev/d
Perigee alt
355.3 km
Apogee alt
357.6 km
Semi-major
6,734.6 km
B*
8.1148e-4
RAAN
275.3120°
Arg perigee
260.2319°
Mean anomaly
99.8352°
Rev number
9,189

§ Raw data

STARLINK-11558 [DTC]1 63055U 25035D   26264.38520264  .00105105  00000+0  81148-3 0  99902 63055  42.9994 275.3120 0001736 260.2319  99.8352 15.70863223 91898

JSON: /api/v1/satellites/63055 · /tle

For live sub-satellite position, see the globe view (requires WebGL).

§ Visibility from observer

Set your observer location to see the next 7 days of passes ≥ 10°. The values pass through the URL so the page stays shareable.

No JS? Fill the form by hand. The geolocation button needs JavaScript.